CDT,Max TemperatureF,Mean TemperatureF,Min TemperatureF,Max Dew PointF,MeanDew PointF,Min DewpointF,Max Humidity, Mean Humidity, Min Humidity, Max Sea Level PressureIn, Mean Sea Level PressureIn, Min Sea Level PressureIn, Max VisibilityMiles, Mean VisibilityMiles, Min VisibilityMiles, Max Wind SpeedMPH, Mean Wind SpeedMPH, Max Gust SpeedMPH,PrecipitationIn, CloudCover, Events, WindDirDegrees
2013-6-1,70,62,54,63,55,50,93,81,68,29.92,29.73,29.61,10,10,10,23,13,29,0.01,5,,273
2013-6-2,66,57,48,50,46,42,93,71,48,30.08,30.02,29.93,10,10,10,22,9,30,0.00,5,,347
2013-6-3,71,58,44,53,48,44,100,70,40,30.08,30.01,29.94,10,10,7,15,6,22,0.00,0,,140
2013-6-4,64,60,55,61,56,51,100,88,75,30.07,30.01,29.98,10,7,2,26,10,35,0.51,8,Rain-Thunderstorm,128
2013-6-5,70,62,54,61,59,52,100,80,59,30.02,29.98,29.92,10,5,1,15,6,18,0.48,7,Rain-Thunderstorm,333
2013-6-6,69,61,53,56,53,50,93,76,58,29.99,29.95,29.91,10,10,3,20,10,24,0.00,4,,342
2013-6-7,68,60,51,54,52,49,100,78,56,30.03,29.99,29.93,10,7,2,13,5,15,0.00,5,,349
2013-6-8,70,59,48,63,53,48,100,79,57,29.94,29.89,29.78,10,6,0,17,6,25,0.29,3,Fog-Rain,135
2013-6-9,71,64,56,63,60,55,100,87,73,29.78,29.73,29.69,10,9,0,20,8,25,0.13,6,Fog-Rain,199
2013-6-10,76,65,53,65,60,54,100,82,64,29.90,29.83,29.76,10,6,0,9,3,13,0.00,4,Fog,290
2013-6-11,86,73,59,72,67,61,100,81,61,29.90,29.81,29.71,10,9,0,14,6,18,0.01,0,Fog,129
2013-6-12,88,76,64,74,68,57,93,76,59,29.87,29.76,29.67,10,10,4,33,14,44,0.17,4,Rain-Thunderstorm,261
2013-6-13,83,72,61,59,56,52,84,60,36,30.05,29.99,29.89,10,10,10,26,7,35,0.00,1,,355
2013-6-14,74,67,60,66,62,57,100,84,68,30.07,29.99,29.85,10,10,4,26,9,36,0.40,4,Rain-Thunderstorm,168
2013-6-15,82,72,62,72,66,62,100,85,69,29.98,29.91,29.84,10,9,4,24,6,31,0.22,3,Rain-Thunderstorm,185
2013-6-16,85,75,64,67,60,48,100,65,29,29.96,29.94,29.91,10,8,1,12,5,16,0.00,2,,281
2013-6-17,88,73,58,62,57,51,93,64,34,29.97,29.94,29.89,10,10,10,18,6,22,0.00,1,,316
2013-6-18,83,72,61,61,58,53,78,61,43,30.01,29.98,29.94,10,10,7,14,5,16,T,2,Rain,14
2013-6-19,83,73,62,65,61,58,90,71,51,30.06,30.01,29.96,10,10,10,18,9,22,0.00,1,,151
2013-6-20,87,77,66,67,64,61,87,67,46,30.01,29.97,29.90,10,10,10,24,13,32,0.00,1,,158
2013-6-21,88,80,72,75,69,64,83,73,59,30.01,29.90,29.83,10,10,10,23,12,31,0.00,3,Rain,160
2013-6-22,92,81,69,73,69,62,79,66,53,30.03,29.89,29.83,10,10,10,24,11,32,0.00,1,Thunderstorm,192
2013-6-23,81,74,67,70,67,63,93,78,62,29.97,29.88,29.81,10,9,1,23,10,31,0.16,5,Rain-Thunderstorm,188
2013-6-24,76,72,67,73,69,64,100,87,74,30.02,29.90,29.81,10,8,2,33,8,45,0.79,5,Rain-Thunderstorm,145
2013-6-25,88,78,67,74,70,65,100,78,55,29.82,29.76,29.70,10,9,5,18,7,24,0.08,3,Rain-Thunderstorm,150
2013-6-26,92,81,69,77,71,62,100,71,41,29.84,29.73,29.64,10,10,8,22,8,28,0.00,4,,246
2013-6-27,87,76,64,67,63,59,93,67,40,29.94,29.87,29.84,10,10,10,17,8,24,0.02,1,,287
2013-6-28,86,76,66,63,57,51,87,60,32,29.88,29.82,29.77,10,10,10,33,16,46,0.00,1,,325
2013-6-29,77,70,63,61,58,55,78,64,50,29.92,29.81,29.76,10,10,10,30,15,37,0.00,4,,348
2013-6-30,79,69,58,56,51,45,93,63,33,30.09,30.01,29.92,10,9,5,21,10,26,0.00,0,,11